South Albury Real Estate, NSW, 2640 Albury

Thinking about buying in South Albury? Now could not be a better time, with a whopping 1582 properties either residential or commercial there's certainly plenty to choose from.

The average property price for this area is $328,000 with prices in this suburb ranging from $134,000 to $535,000.

Distance to the coast is 218 Km.

South Albury Real Estate Market Outlook

In South Albury there has been a history of lower than average prices and demand, offering opportunities for investors or first home owners, especially in the context of the growth in working from home. Low average incomes in South Albury is reflected in smaller and lower quality accommodation. Over time this may change providsing long-term returns but in the short to medium term, prices are likely to be less than state averages. The slightly lower than average earnings from occupations in South Albury changes the housing and lifestyle preference. It is more a matter of what can be afforded rather than what would we prefer, leading to slower price increases over time. Low population density implies low demand and limits housing choices and price increases. Could be a good entry point for first home buyers needing to somehow get into the market. Lower than average industry presence in South Albury we believe will be less of a negative impact than it has in the past. Post-COVID and the growth in working from home has lessened the demand for local employment options. This may make South Albury a better buying opportunity than it may have been in the past.

About

For Sale

McGrath 419 FLEMING ST, SOUTH ALBURY, NSW, 2640 4 2 3 $930,000 - $980,000

More

Local Schools


None within suburb boundary

(While the above schools are located with the suburb of South Albury there may also be nearby schools whose catchments cover this suburb)

Local Crime Stats


Average Local Climate by month


(mm)
RAIN
Min (°C)
TEMP
Max (°C)
TEMP
Min (%)
HUMIDITY
Max (%)
HUMIDITY
(m/sec)
WIND
(MJ/sq m)
SOLAR
Jan1.214.533.620.180.13.126.9
Feb2.014.231.428.487.42.723.4
Mar1.711.327.634.191.52.418.5
Apr1.27.123.04295.41.914.4
May1.43.517.455.998.52.09.9
Jun1.31.914.166.798.81.88.5
Jul1.61.613.169.299.22.48.4
Aug1.62.014.361.698.82.411.3
Sept1.43.417.952.798.12.616.2
Oct1.95.622.042.697.22.721.3
Nov1.28.527.328.393.83.125.1
Dec1.511.530.422.587.33.227.5

source: Australian Government Bureau of Meteorology

Recently Sold

29-04-2022 $650,000 323 TOWNSEND ST SOUTH ALBURY 2640
22-04-2022 $5,250,000 513 ATKINS ST SOUTH ALBURY 2640
19-04-2022 $570,000 334 CHARLES ST SOUTH ALBURY 2640
21-03-2022 $655,000 379 OLIVE ST SOUTH ALBURY 2640
15-03-2022 $460,000 485 HUME ST SOUTH ALBURY 2640
11-03-2022 $220,000 3 / 510 BUTSON AVE SOUTH ALBURY 2640
04-03-2022 $465,000 547 ATKINS ST SOUTH ALBURY 2640
02-03-2022 $600,000 585 HOVELL ST SOUTH ALBURY 2640
21-02-2022 $340,000 5 / 363 KIEWA ST SOUTH ALBURY 2640
11-02-2022 $635,000 4 / 394 DAVID ST SOUTH ALBURY 2640
08-02-2022 $575,000 517 ABERCORN ST SOUTH ALBURY 2640
08-02-2022 $575,000 517 ABERCORN ST SOUTH ALBURY 2640
08-02-2022 $575,000 517 ABERCORN ST SOUTH ALBURY 2640
08-02-2022 $575,000 517 ABERCORN ST SOUTH ALBURY 2640
14-01-2022 $445,000 487 HUME ST SOUTH ALBURY 2640
14-01-2022 $410,000 435 HOVELL ST SOUTH ALBURY 2640
22-12-2021 $480,000 317 OLIVE ST SOUTH ALBURY 2640
22-12-2021 $480,000 317 OLIVE ST SOUTH ALBURY 2640
22-12-2021 $480,000 317 OLIVE ST SOUTH ALBURY 2640
21-12-2021 $542,500 6 / 394 DAVID ST SOUTH ALBURY 2640
17-12-2021 $680,000 205 OLIVE ST SOUTH ALBURY 2640
17-12-2021 $537,000 195 KIEWA ST SOUTH ALBURY 2640
17-12-2021 $537,000 195 KIEWA ST SOUTH ALBURY 2640
17-12-2021 $537,000 195 KIEWA ST SOUTH ALBURY 2640
17-12-2021 $537,000 195 KIEWA ST SOUTH ALBURY 2640
13-12-2021 $835,000 342 OLIVE ST SOUTH ALBURY 2640
13-12-2021 $835,000 342 OLIVE ST SOUTH ALBURY 2640
13-12-2021 $835,000 342 OLIVE ST SOUTH ALBURY 2640
10-12-2021 $450,000 214 OLIVE ST SOUTH ALBURY 2640
10-12-2021 $1,150,000 210 OLIVE ST SOUTH ALBURY 2640
10-12-2021 $1,335,000 448 PANMURE ST SOUTH ALBURY 2640
06-12-2021 $540,000 486 EBDEN ST SOUTH ALBURY 2640
22-11-2021 $308,000 2 / 576 EBDEN ST SOUTH ALBURY 2640
18-11-2021 $840,000 535 EBDEN ST SOUTH ALBURY 2640
29-10-2021 $175,000 3 / 205 PLUMMER ST SOUTH ALBURY 2640
15-10-2021 $439,000 302 TOWNSEND ST SOUTH ALBURY 2640
08-10-2021 $1,000,000 561 HOVELL ST SOUTH ALBURY 2640
30-09-2021 $399,000 262 OLIVE ST SOUTH ALBURY 2640
23-09-2021 $255,000 1 / 206 PLUMMER ST SOUTH ALBURY 2640
16-09-2021 $1,265,000 459 HOVELL ST SOUTH ALBURY 2640
13-09-2021 $403,000 513 HUME ST SOUTH ALBURY 2640
10-09-2021 $295,000 1 / 576 EBDEN ST SOUTH ALBURY 2640
08-09-2021 $600,000 314 DAVID ST SOUTH ALBURY 2640
03-09-2021 $649,500 390 MACAULEY ST SOUTH ALBURY 2640
02-09-2021 $595,000 5 / 394 DAVID ST SOUTH ALBURY 2640
26-08-2021 $705,000 339 MACAULEY ST SOUTH ALBURY 2640
25-08-2021 $450,000 562 EBDEN ST SOUTH ALBURY 2640
20-08-2021 $680,000 2 / 449 HUME ST SOUTH ALBURY 2640
20-08-2021 $680,000 1 / 449 HUME ST SOUTH ALBURY 2640
20-08-2021 $680,000 2 / 449 HUME ST SOUTH ALBURY 2640

Residz covers 12m+ Australian properties and brings together a wealth of data to give you a better understanding of an area. From crime and schools to bush fire, flood risk and more. Begin your search for properties for sale or learn more about where you currently reside. Residz is an exciting next-generation Real Estate platform getting better by the day!